Leadville, CO

8:42 PM MDT on June 19, 2018 (GMT -0600)
Lake County

Weather History for KLXV - November, 2017

Change the Weather History Date:

Wednesday, November 15, 2017

  Actual Average Record
Temperature  
Mean Temperature 30 °F -  
Max Temperature 47 °F 37 °F 57 °F (1999)
Min Temperature 13 °F 12 °F -9 °F (1997)
Degree Days  
Heating Degree Days 35 40  
Month to date heating degree days 463 561  
Since 1 July heating degree days 2486 2750  
Cooling Degree Days 0 0  
Month to date cooling degree days 0 0  
Year to date cooling degree days 0 0  
Moisture  
Dew Point 3 °F    
Average Humidity 36    
Maximum Humidity 62    
Minimum Humidity 10    
Precipitation  
Precipitation 0.00 in 0.02 in 0.32 in (1987)
Month to date precipitation 0.11 0.41  
Year to date precipitation 16.00 11.35  
Sea Level Pressure  
Sea Level Pressure 30.05 in    
Wind  
Wind Speed 5 mph (NE)    
Max Wind Speed 12 mph    
Max Gust Speed 15 mph    
Visibility 10 miles    
Events      
T = Trace of Precipitation, MM = Missing Value Source: NWS Daily Summary

Daily Weather History Graph

Daily Weather History Graph

Search for Another Location

Airport or City:

Astronomy

Nov. 15, 2017 Rise Set
Actual Time 6:49 AM MST 4:50 PM MST
Civil Twilight 6:20 AM MST 5:19 PM MST
Nautical Twilight 5:47 AM MST 5:51 PM MST
Astronomical Twilight 5:16 AM MST 6:23 PM MST
Moon 3:53 AM MST (11/15) 3:45 PM MST (11/15)
Length of Visible Light 10h 58m
Length of Day
10h 01m
Waning Crescent, 7% of the Moon is Illuminated
Nov 15
Waning Crescent
Nov 18
New
Nov 26
First Quarter
Dec 3
Full
Dec 10
Last Quarter

Hourly Weather History & Observations

Time (MST) Temp. Windchill Dew Point Humidity Pressure Visibility Wind Dir Wind Speed Gust Speed Precip Events Conditions
12:53 AM 26.1 °F 17.6 °F 10.0 °F 51% 30.04 in 10.0 mi NE 8.1 mph - N/A   Clear
1:53 AM 21.9 °F 12.5 °F 10.0 °F 60% 30.06 in 10.0 mi NE 8.1 mph - N/A   Clear
2:53 AM 19.9 °F - 9.0 °F 62% 30.07 in 10.0 mi Calm Calm - N/A   Clear
3:53 AM 19.9 °F 13.4 °F 8.1 °F 60% 30.09 in 10.0 mi NE 4.6 mph - N/A   Clear
4:53 AM 18.0 °F 11.1 °F 6.1 °F 60% 30.13 in 10.0 mi North 4.6 mph - N/A   Clear
5:53 AM 19.0 °F 13.9 °F 3.0 °F 50% 30.14 in 10.0 mi ENE 3.5 mph - N/A   Clear
6:53 AM 17.1 °F - 1.9 °F 52% 30.18 in 10.0 mi Calm Calm - N/A   Clear
7:53 AM 21.0 °F - 3.9 °F 48% 30.17 in 10.0 mi Calm Calm - N/A   Clear
8:53 AM 30.0 °F - 3.9 °F 33% 30.13 in 10.0 mi Calm Calm - N/A   Clear
9:53 AM 34.0 °F 28.8 °F 3.0 °F 27% 30.09 in 10.0 mi SSE 5.8 mph - N/A   Clear
10:53 AM 37.9 °F - 1.0 °F 21% 30.04 in 10.0 mi Calm Calm - N/A   Clear
11:53 AM 41.0 °F 37.1 °F 1.0 °F 19% 30.00 in 10.0 mi South 5.8 mph - N/A   Clear
12:53 PM 44.1 °F 41.5 °F -7.1 °F 12% 29.97 in 10.0 mi Variable 4.6 mph - N/A   Clear
1:53 PM 46.0 °F 41.4 °F -7.1 °F 11% 29.97 in 10.0 mi North 9.2 mph - N/A   Clear
2:53 PM 44.1 °F 38.6 °F -5.1 °F 13% 29.99 in 10.0 mi NW 10.4 mph - N/A   Clear
3:53 PM 43.0 °F 38.8 °F -2.0 °F 15% 30.00 in 10.0 mi NW 6.9 mph - N/A   Clear
4:53 PM 37.9 °F 35.5 °F 1.9 °F 22% 30.06 in 10.0 mi NNW 3.5 mph - N/A   Clear
5:53 PM 33.1 °F 26.1 °F 3.0 °F 28% 30.09 in 10.0 mi NE 8.1 mph - N/A   Partly Cloudy
6:53 PM 32.0 °F 24.2 °F 5.0 °F 32% 30.10 in 10.0 mi ENE 9.2 mph - N/A   Scattered Clouds
7:53 PM 32.0 °F 25.6 °F 3.0 °F 29% 30.08 in 10.0 mi East 6.9 mph - N/A   Clear
8:53 PM 30.9 °F 24.3 °F 3.0 °F 31% 30.01 in 10.0 mi ENE 6.9 mph - N/A   Clear
9:53 PM 30.9 °F 24.3 °F 1.9 °F 29% 29.99 in 10.0 mi East 6.9 mph - N/A   Clear
10:53 PM 28.9 °F 22.8 °F 3.9 °F 35% 29.96 in 10.0 mi ENE 5.8 mph - N/A   Clear
11:53 PM 28.0 °F 20.8 °F 5.0 °F 38% 29.94 in 10.0 mi ESE 6.9 mph - N/A   Clear